FW8200 Weather Reports


Display with metric or nautical units.
time (UTC)temp
F
wind
direction
speed
MPH
gust
MPH
rain 1hr
in
rain 24hr
in
rain mn
in
humidity
%
barometer
mb
20260510174714 70 24 1.0 3.0 0.00 0.00 0.00 47 1018.5
20260510174211 69 41 2.0 3.0 0.00 0.00 0.00 47 1018.4
20260510173707 69 8 2.0 7.0 0.00 0.00 0.00 46 1018.4
20260510173203 69 23 2.0 3.0 0.00 0.00 0.00 47 1018.7
20260510172658 69 85 1.0 6.0 0.00 0.00 0.00 46 1018.6
20260510172155 68 54 1.0 2.0 0.00 0.00 0.00 46 1018.4
20260510171651 68 13 2.0 2.0 0.00 0.00 0.00 48 1018.4
20260510171149 68 49 3.0 5.0 0.00 0.00 0.00 47 1018.4
20260510170645 68 80 2.0 5.0 0.00 0.00 0.00 48 1018.1
20260510170142 68 94 1.0 2.0 0.00 0.00 0.00 50 1018.0
20260510165638 68 54 0.0 2.0 0.00 0.00 0.00 51 1017.8
20260510165134 69 78 2.0 3.0 0.00 0.00 0.00 51 1018.0
20260510164631 69 30 5.0 9.0 0.00 0.00 0.00 48 1018.1
20260510164128 69 68 1.0 3.0 0.00 0.00 0.00 50 1018.0
20260510163622 68 82 0.0 2.0 0.00 0.00 0.00 51 1017.8
20260510163119 68 72 1.0 3.0 0.00 0.00 0.00 52 1018.0
20260510162614 68 43 1.0 3.0 0.00 0.00 0.00 51 1017.7
20260510162111 68 131 1.0 3.0 0.00 0.00 0.00 52 1017.7
20260510161606 67 79 1.0 3.0 0.00 0.00 0.00 53 1018.0
20260510161104 67 59 3.0 8.0 0.00 0.00 0.00 54 1017.9
20260510160601 67 72 1.0 8.0 0.00 0.00 0.00 55 1017.7
20260510160100 67 70 0.0 3.0 0.00 0.00 0.00 57 1017.8
20260510155557 66 24 2.0 9.0 0.00 0.00 0.00 57 1017.6
20260510155054 66 76 1.0 5.0 0.00 0.00 0.00 58 1017.3
20260510154549 65 47 0.0 2.0 0.00 0.00 0.00 61 1017.2
20260510154045 65 63 1.0 1.0 0.00 0.00 0.00 61 1017.3
20260510153539 64 49 1.0 1.0 0.00 0.00 0.00 62 1017.3
20260510153037 64 79 2.0 3.0 0.00 0.00 0.00 60 1016.9
20260510152534 64 42 2.0 2.0 0.00 0.00 0.00 63 1017.0
20260510152030 64 31 2.0 5.0 0.00 0.00 0.00 63 1017.0
20260510151526 64 304 3.0 5.0 0.00 0.00 0.00 64 1016.6
20260510151024 64 107 1.0 3.0 0.00 0.00 0.00 64 1016.7
20260510150519 64 111 1.0 5.0 0.00 0.00 0.00 66 1016.7
20260510150016 64 118 2.0 2.0 0.00 0.00 0.00 66 1016.7
20260510145512 64 31 5.0 6.0 0.00 0.00 0.00 67 1016.9
20260510145009 64 78 0.0 3.0 0.00 0.00 0.00 70 1016.5
20260510144505 63 61 2.0 3.0 0.00 0.00 0.00 72 1016.8
20260510144001 63 15 1.0 5.0 0.00 0.00 0.00 74 1017.0
20260510143457 62 354 1.0 5.0 0.00 0.00 0.00 75 1016.9
20260510142954 62 21 3.0 6.0 0.00 0.00 0.00 74 1017.0
20260510142450 62 53 1.0 3.0 0.00 0.00 0.00 76 1017.1
20260510141947 62 50 1.0 6.0 0.00 0.00 0.00 76 1016.9
20260510141444 62 48 0.0 3.0 0.00 0.00 0.00 77 1017.0
20260510140941 62 36 0.0 1.0 0.00 0.00 0.00 77 1017.1
20260510140437 62 45 0.0 3.0 0.00 0.00 0.00 77 1017.3
20260510135936 62 29 1.0 2.0 0.00 0.00 0.00 77 1017.1
20260510135432 62 34 1.0 3.0 0.00 0.00 0.00 77 1017.2
20260510134930 62 8 1.0 2.0 0.00 0.00 0.00 77 1016.9
20260510134426 62 42 1.0 2.0 0.00 0.00 0.00 77 1016.7
20260510133923 62 44 1.0 2.0 0.00 0.00 0.00 77 1016.7
20260510133419 62 54 0.0 1.0 0.00 0.00 0.00 76 1016.7
20260510132914 62 81 1.0 3.0 0.00 0.00 0.00 76 1016.6
20260510132413 62 92 2.0 3.0 0.00 0.00 0.00 76 1016.5
20260510131909 62 85 1.0 5.0 0.00 0.00 0.00 76 1016.4
20260510131407 62 42 1.0 2.0 0.00 0.00 0.00 78 1016.3
20260510130903 62 88 0.0 1.0 0.00 0.00 0.00 79 1016.2
20260510130401 62 38 1.0 1.0 0.00 0.00 0.00 79 1015.9
20260510125857 62 92 1.0 1.0 0.00 0.00 0.00 79 1016.1
20260510125347 62 32 1.0 2.0 0.00 0.00 0.00 79 1015.7
20260510124844 62 60 0.0 6.0 0.00 0.00 0.00 79 1015.9
20260510124341 62 101 1.0 2.0 0.00 0.00 0.00 79 1015.6
20260510123837 62 111 1.0 2.0 0.00 0.00 0.00 79 1015.6
20260510123333 62 58 3.0 3.0 0.00 0.00 0.00 79 1015.3
20260510122829 62 31 1.0 1.0 0.00 0.00 0.00 80 1015.4
20260510122325 62 72 1.0 3.0 0.00 0.00 0.00 79 1015.2
20260510121822 62 74 1.0 2.0 0.00 0.00 0.00 80 1015.1
20260510121320 61 51 0.0 2.0 0.00 0.00 0.00 81 1015.2
20260510120816 61 48 1.0 3.0 0.00 0.00 0.00 81 1015.2
20260510120313 61 60 0.0 1.0 0.00 0.00 0.00 83 1014.9
20260510115808 60 58 0.0 1.0 0.00 0.00 0.00 82 1014.7
20260510115307 60 58 0.0 1.0 0.00 0.00 0.00 82 1014.5
20260510114802 60 50 0.0 1.0 0.00 0.00 0.00 83 1014.4
20260510114259 60 49 0.0 1.0 0.00 0.00 0.00 83 1014.4
20260510113759 60 40 1.0 2.0 0.00 0.00 0.00 83 1014.1
20260510113257 61 49 0.0 0.0 0.00 0.00 0.00 83 1013.9
20260510112753 61 50 0.0 1.0 0.00 0.00 0.00 82 1013.6
20260510112250 61 52 0.0 0.0 0.00 0.00 0.00 82 1013.9
20260510111746 61 50 1.0 1.0 0.00 0.00 0.00 81 1013.7
20260510111243 62 55 1.0 1.0 0.00 0.00 0.00 80 1013.7
20260510110742 62 36 0.0 3.0 0.00 0.00 0.00 79 1013.6
20260510110241 62 33 1.0 2.0 0.00 0.00 0.00 79 1013.5
20260510105740 62 34 2.0 2.0 0.00 0.00 0.00 79 1013.6
20260510105235 62 37 1.0 3.0 0.00 0.00 0.00 79 1013.5
20260510104732 61 17 2.0 3.0 0.00 0.00 0.00 80 1013.3
20260510104230 61 20 1.0 2.0 0.00 0.00 0.00 81 1013.5
20260510103726 61 20 1.0 2.0 0.00 0.00 0.00 81 1013.3
20260510103223 61 24 0.0 1.0 0.00 0.00 0.00 82 1013.0
20260510102722 62 24 1.0 1.0 0.00 0.00 0.00 81 1013.2
20260510102218 62 24 1.0 1.0 0.00 0.00 0.00 81 1013.2
20260510101716 62 24 0.0 1.0 0.00 0.00 0.00 81 1013.3
20260510101215 62 22 1.0 1.0 0.00 0.00 0.00 83 1013.3
20260510100710 62 22 0.0 0.0 0.00 0.00 0.00 83 1013.3
20260510100209 62 22 0.0 0.0 0.00 0.00 0.00 81 1013.0
20260510095703 62 23 0.0 1.0 0.00 0.00 0.00 80 1013.0
20260510095159 62 23 0.0 2.0 0.00 0.00 0.00 78 1013.1
20260510094657 62 24 1.0 1.0 0.00 0.00 0.00 79 1013.0
20260510094154 61 16 1.0 2.0 0.00 0.00 0.00 81 1013.2
20260510093650 61 304 1.0 1.0 0.00 0.00 0.00 83 1012.8
20260510093147 61 304 0.0 1.0 0.00 0.00 0.00 83 1012.8
20260510092643 61 304 0.0 0.0 0.00 0.00 0.00 83 1012.6
20260510092138 61 304 0.0 0.0 0.00 0.00 0.00 83 1012.4
20260510091635 61 304 0.0 1.0 0.00 0.00 0.00 83 1012.5
20260510091131 62 304 0.0 1.0 0.00 0.00 0.00 82 1012.4
20260510090623 61 304 0.0 0.0 0.00 0.00 0.00 84 1012.2
20260510090119 61 304 0.0 0.0 0.00 0.00 0.00 85 1012.1
20260510085614 62 304 0.0 1.0 0.00 0.00 0.00 84 1011.9
20260510085109 62 304 0.0 0.0 0.00 0.00 0.00 84 1011.9
20260510084606 62 304 0.0 0.0 0.00 0.00 0.00 83 1011.8
20260510084103 62 304 0.0 0.0 0.00 0.00 0.00 83 1012.0
20260510083559 62 304 0.0 0.0 0.00 0.00 0.00 83 1011.7
20260510083055 62 304 0.0 0.0 0.00 0.00 0.00 82 1012.0
20260510082553 62 304 0.0 1.0 0.00 0.00 0.00 82 1011.8
20260510082048 62 304 0.0 0.0 0.00 0.00 0.00 81 1011.8
20260510081543 62 304 0.0 0.0 0.00 0.00 0.00 81 1012.0
20260510081039 62 304 0.0 1.0 0.00 0.00 0.00 81 1011.7
20260510080538 63 304 0.0 0.0 0.00 0.00 0.00 81 1012.1
20260510080035 63 304 0.0 0.0 0.00 0.00 0.00 80 1011.8
20260510075533 63 304 0.0 0.0 0.00 0.00 0.00 79 1011.7
20260510075029 64 304 0.0 0.0 0.00 0.00 0.00 79 1011.7
20260510074527 64 304 0.0 0.0 0.00 0.00 0.00 76 1011.6
20260510074022 64 304 0.0 0.0 0.00 0.00 0.00 76 1011.9
20260510073518 64 304 0.0 0.0 0.00 0.00 0.00 75 1012.1
20260510073016 65 304 0.0 1.0 0.00 0.00 0.00 74 1011.7
20260510072512 65 304 0.0 0.0 0.00 0.00 0.00 73 1011.8
20260510072008 64 304 0.0 1.0 0.00 0.00 0.00 74 1012.0
20260510071504 65 302 0.0 1.0 0.00 0.00 0.00 75 1012.2
20260510071003 65 302 0.0 1.0 0.00 0.00 0.00 74 1012.0
20260510070459 65 313 0.0 2.0 0.00 0.00 0.00 73 1011.9
20260510065955 65 21 1.0 2.0 0.00 0.00 0.00 74 1012.0
20260510065452 64 296 2.0 3.0 0.00 0.00 0.00 75 1011.8
20260510064948 64 316 3.0 3.0 0.00 0.00 0.00 76 1011.6
20260510064445 64 287 1.0 1.0 0.00 0.00 0.00 76 1011.2
20260510063942 64 284 1.0 1.0 0.00 0.00 0.00 78 1010.9
20260510063438 64 286 1.0 2.0 0.00 0.00 0.00 79 1010.9
20260510062937 65 254 1.0 1.0 0.00 0.00 0.00 77 1010.7
20260510062437 65 254 1.0 1.0 0.00 0.00 0.00 74 1010.7
20260510061932 63 259 1.0 1.0 0.00 0.00 0.00 83 1010.9
20260510061429 63 261 0.0 0.0 0.00 0.00 0.00 85 1010.9
20260510060925 63 261 0.0 0.0 0.00 0.00 0.00 86 1010.7
20260510060422 63 261 0.0 0.0 0.00 0.00 0.00 87 1010.7
20260510055919 63 261 0.0 0.0 0.00 0.00 0.00 87 1011.1
20260510055414 63 261 0.0 0.0 0.00 0.00 0.00 88 1011.1
20260510054913 63 261 0.0 0.0 0.00 0.00 0.00 89 1011.1
20260510054408 63 261 0.0 1.0 0.00 0.00 0.00 91 1011.3
20260510053903 63 261 1.0 1.0 0.00 0.00 0.00 91 1011.4
20260510053359 62 279 0.0 0.0 0.00 0.00 0.00 91 1011.7
20260510052855 62 279 0.0 0.0 0.00 0.00 0.00 91 1011.8
20260510052351 62 279 0.0 0.0 0.00 0.00 0.00 91 1011.8
20260510051847 62 279 0.0 1.0 0.00 0.00 0.00 91 1012.0
20260510051344 62 279 0.0 1.0 0.00 0.00 0.00 91 1011.8
20260510050841 62 279 0.0 0.0 0.00 0.00 0.00 92 1012.0
20260510050338 62 279 0.0 1.0 0.00 0.00 0.00 92 1011.9
20260510045835 62 279 0.0 0.0 0.00 0.00 0.00 92 1012.0
20260510045331 62 279 0.0 0.0 0.00 0.00 0.00 92 1011.8
20260510044829 62 279 0.0 0.0 0.00 0.00 0.00 92 1012.0
20260510044326 62 279 0.0 0.0 0.00 0.00 0.00 93 1011.9
20260510043822 62 279 0.0 0.0 0.00 0.00 0.00 93 1011.6
20260510043318 62 279 0.0 0.0 0.00 0.00 0.00 92 1011.9
20260510042816 62 279 1.0 1.0 0.00 0.00 0.00 92 1011.5
20260510042312 62 279 0.0 0.0 0.00 0.00 0.00 92 1011.4
20260510041808 62 279 0.0 0.0 0.00 0.00 0.00 92 1011.5
20260510041306 62 279 0.0 0.0 0.00 0.00 0.00 92 1011.5
20260510040803 62 279 0.0 0.0 0.00 0.00 0.00 92 1011.5
20260510040259 62 279 0.0 0.0 0.00 0.00 0.00 91 1011.5
20260510035755 62 279 0.0 0.0 0.00 0.00 0.00 91 1011.6
20260510035251 62 279 0.0 0.0 0.00 0.00 0.00 91 1011.6
20260510034746 62 279 0.0 0.0 0.00 0.00 0.00 91 1011.5
20260510034245 62 279 0.0 0.0 0.00 0.00 0.00 91 1011.5
20260510033741 62 279 0.0 0.0 0.00 0.00 0.00 90 1011.4
20260510033238 62 279 0.0 0.0 0.00 0.00 0.00 90 1011.3
20260510032734 62 279 0.0 0.0 0.00 0.00 0.00 90 1011.1
20260510032231 62 279 0.0 0.0 0.00 0.00 0.00 89 1011.0
20260510031726 62 279 0.0 0.0 0.00 0.00 0.00 88 1011.1
20260510031222 62 279 0.0 0.0 0.00 0.00 0.00 87 1010.9
20260510030721 62 279 0.0 0.0 0.00 0.00 0.00 87 1010.8
20260510030219 63 279 0.0 0.0 0.00 0.00 0.00 86 1010.8
20260510025716 63 279 0.0 0.0 0.00 0.00 0.00 86 1010.8
20260510025214 64 279 0.0 0.0 0.00 0.00 0.00 84 1010.6
20260510024710 63 279 0.0 0.0 0.00 0.00 0.00 83 1010.4
20260510024207 64 279 0.0 0.0 0.00 0.00 0.00 82 1010.4
20260510023702 64 279 0.0 0.0 0.00 0.00 0.00 80 1010.4
20260510023200 64 279 0.0 0.0 0.00 0.00 0.00 79 1010.4
20260510022655 64 279 0.0 0.0 0.00 0.00 0.00 79 1010.2
20260510022150 64 279 0.0 0.0 0.00 0.00 0.00 78 1010.3
20260510021646 65 279 0.0 0.0 0.00 0.00 0.00 77 1009.7
20260510021144 65 279 0.0 0.0 0.00 0.00 0.00 75 1009.8
20260510020638 65 279 0.0 0.0 0.00 0.00 0.00 74 1009.6
20260510020133 66 279 0.0 0.0 0.00 0.00 0.00 74 1009.5
20260510015629 66 279 0.0 0.0 0.00 0.00 0.00 73 1009.5
20260510015126 66 279 0.0 0.0 0.00 0.00 0.00 73 1009.0
20260510014621 67 279 0.0 0.0 0.00 0.00 0.00 71 1009.4
20260510014119 67 279 0.0 0.0 0.00 0.00 0.00 70 1009.1
20260510013619 68 279 0.0 0.0 0.00 0.00 0.00 69 1008.9
20260510013115 69 279 0.0 0.0 0.00 0.00 0.00 66 1008.9
20260510012614 69 279 0.0 0.0 0.00 0.00 0.00 66 1008.9
20260510012111 70 279 0.0 0.0 0.00 0.00 0.00 66 1008.7
20260510011610 70 279 0.0 1.0 0.00 0.00 0.00 64 1008.6
20260510011107 71 279 0.0 0.0 0.00 0.00 0.00 62 1008.3
20260510010603 71 279 0.0 0.0 0.00 0.00 0.00 62 1008.4
20260510010101 72 279 0.0 1.0 0.00 0.00 0.00 61 1008.4
20260510005556 72 278 0.0 1.0 0.00 0.00 0.00 60 1008.2
20260510005054 73 278 0.0 1.0 0.00 0.00 0.00 59 1008.3
20260510004551 73 278 0.0 1.0 0.00 0.00 0.00 58 1008.4
20260510004049 74 279 0.0 0.0 0.00 0.00 0.00 57 1008.4
20260510003546 75 279 0.0 1.0 0.00 0.00 0.00 56 1008.5
20260510003041 76 279 0.0 0.0 0.00 0.00 0.00 53 1008.3
20260510002537 76 285 1.0 2.0 0.00 0.00 0.00 50 1008.4
20260510002034 77 281 0.0 1.0 0.00 0.00 0.00 50 1008.4
20260510001531 77 282 1.0 1.0 0.00 0.00 0.00 49 1008.3
20260510001030 77 275 0.0 1.0 0.00 0.00 0.00 50 1008.4
20260510000524 78 275 0.0 1.0 0.00 0.00 0.00 48 1008.4
20260510000021 79 275 0.0 1.0 0.00 0.00 0.00 47 1008.5
20260509235518 82 272 1.0 1.0 0.00 0.00 0.00 45 1008.4
20260509235015 81 259 0.0 0.0 0.00 0.00 0.00 44 1008.4
20260509234511 81 258 0.0 1.0 0.00 0.00 0.00 45 1008.2
20260509234009 81 271 0.0 1.0 0.00 0.00 0.00 44 1008.3
20260509233507 81 271 0.0 0.0 0.00 0.00 0.00 43 1008.5
20260509233004 81 240 0.0 0.0 0.00 0.00 0.00 41 1008.6
20260509232500 82 242 0.0 1.0 0.00 0.00 0.00 41 1008.5
20260509231956 82 206 1.0 2.0 0.00 0.00 0.00 39 1008.3
20260509231453 81 196 1.0 2.0 0.00 0.00 0.00 41 1008.6
20260509230951 82 182 2.0 3.0 0.00 0.00 0.00 40 1008.6
20260509230447 81 206 1.0 2.0 0.00 0.00 0.00 41 1008.4
20260509225944 82 206 2.0 3.0 0.00 0.00 0.00 38 1008.4
20260509225440 82 226 1.0 3.0 0.00 0.00 0.00 37 1008.4
20260509224936 82 195 2.0 3.0 0.00 0.00 0.00 39 1008.4
20260509224431 82 196 2.0 3.0 0.00 0.00 0.00 39 1008.4
20260509223929 83 196 3.0 3.0 0.00 0.00 0.00 40 1008.5
20260509223425 84 253 2.0 3.0 0.00 0.00 0.00 36 1008.4
20260509222923 84 245 0.0 3.0 0.00 0.00 0.00 38 1008.5
20260509222418 84 237 0.0 1.0 0.00 0.00 0.00 37 1008.3
20260509221914 86 209 1.0 2.0 0.00 0.00 0.00 36 1008.4
20260509221411 87 244 1.0 3.0 0.00 0.00 0.00 35 1008.5
20260509220907 87 294 0.0 2.0 0.00 0.00 0.00 36 1008.6
20260509220402 85 273 1.0 1.0 0.00 0.00 0.00 37 1008.6
20260509215858 85 248 1.0 1.0 0.00 0.00 0.00 38 1008.4
20260509215355 86 196 1.0 3.0 0.00 0.00 0.00 36 1008.5
20260509214852 86 258 2.0 3.0 0.00 0.00 0.00 36 1008.5
20260509214349 85 261 1.0 1.0 0.00 0.00 0.00 38 1008.6
20260509213846 85 295 5.0 6.0 0.00 0.00 0.00 35 1008.9
20260509213341 84 207 1.0 2.0 0.00 0.00 0.00 38 1008.6
20260509212839 84 159 3.0 3.0 0.00 0.00 0.00 39 1008.6
20260509212337 85 236 1.0 2.0 0.00 0.00 0.00 39 1008.7
20260509211832 85 271 2.0 5.0 0.00 0.00 0.00 39 1008.7
20260509211328 85 241 1.0 2.0 0.00 0.00 0.00 41 1008.8
20260509210825 85 210 1.0 2.0 0.00 0.00 0.00 39 1008.6
20260509210323 85 209 1.0 2.0 0.00 0.00 0.00 41 1008.8
20260509205822 83 283 2.0 3.0 0.00 0.00 0.00 36 1009.0
20260509205317 84 271 1.0 1.0 0.00 0.00 0.00 36 1009.1
20260509204814 86 286 2.0 3.0 0.00 0.00 0.00 39 1008.9
20260509204310 86 275 0.0 2.0 0.00 0.00 0.00 37 1009.2
20260509203806 86 298 0.0 2.0 0.00 0.00 0.00 39 1009.2
20260509203304 84 210 0.0 1.0 0.00 0.00 0.00 40 1009.3
20260509202800 86 210 2.0 2.0 0.00 0.00 0.00 39 1009.3
20260509202256 85 253 1.0 2.0 0.00 0.00 0.00 37 1009.3
20260509201755 85 227 1.0 2.0 0.00 0.00 0.00 39 1009.2
20260509201252 85 279 1.0 5.0 0.00 0.00 0.00 36 1009.3
20260509200749 84 242 0.0 3.0 0.00 0.00 0.00 34 1009.3
20260509200244 84 195 1.0 3.0 0.00 0.00 0.00 38 1009.5
20260509195740 85 307 1.0 5.0 0.00 0.00 0.00 34 1009.6
20260509195236 85 295 2.0 7.0 0.00 0.00 0.00 35 1009.4
20260509194731 85 253 1.0 2.0 0.00 0.00 0.00 36 1009.6
20260509194227 85 301 1.0 3.0 0.00 0.00 0.00 36 1009.5
20260509193724 84 218 1.0 2.0 0.00 0.00 0.00 41 1009.6
20260509193224 85 209 2.0 2.0 0.00 0.00 0.00 43 1009.5
20260509192720 84 211 2.0 3.0 0.00 0.00 0.00 43 1009.4
20260509192215 84 214 1.0 1.0 0.00 0.00 0.00 41 1009.7
20260509191711 83 262 2.0 6.0 0.00 0.00 0.00 41 1009.5
20260509191207 84 317 1.0 2.0 0.00 0.00 0.00 45 1009.5
20260509190704 83 294 2.0 3.0 0.00 0.00 0.00 42 1009.8
20260509190201 82 297 2.0 5.0 0.00 0.00 0.00 48 1009.5
20260509185659 83 209 1.0 3.0 0.00 0.00 0.00 48 1009.7
20260509185154 83 292 0.0 3.0 0.00 0.00 0.00 55 1009.6
20260509184652 83 209 2.0 2.0 0.00 0.00 0.00 48 1009.8
20260509184149 82 193 2.0 6.0 0.00 0.00 0.00 50 1009.8
20260509183645 82 279 1.0 6.0 0.00 0.00 0.00 47 1009.7
20260509183140 82 261 0.0 2.0 0.00 0.00 0.00 55 1009.8
20260509182636 82 280 1.0 3.0 0.00 0.00 0.00 47 1009.9
20260509182134 82 307 3.0 5.0 0.00 0.00 0.00 54 1009.7
20260509181632 81 283 1.0 3.0 0.00 0.00 0.00 52 1009.9
20260509181129 81 195 3.0 5.0 0.00 0.00 0.00 55 1009.9
20260509180625 80 256 1.0 2.0 0.00 0.00 0.00 62 1010.0
20260509180122 80 216 3.0 5.0 0.00 0.00 0.00 53 1010.0
20260509175617 81 217 2.0 3.0 0.00 0.00 0.00 53 1009.9
20260509175115 81 284 1.0 2.0 0.00 0.00 0.00 55 1009.9